Time,TemperatureF,DewpointF,PressureIn,WindDirection,WindDirectionDegrees,WindSpeedMPH,WindSpeedGustMPH,Humidity,HourlyPrecipIn,Conditions,Clouds,dailyrainin,SoftwareType,DateUTC
2013-09-21 00:12:00,57.5,53.0,30.02,NE,45,0.0,0.0,86,0.00,,,0.00,weatherlink.com 1.10,2013-09-21 06:12:00,
2013-09-21 00:27:00,57.1,53.0,30.01,NE,45,0.0,0.0,86,0.00,,,0.00,weatherlink.com 1.10,2013-09-21 06:27:00,
2013-09-21 00:42:00,56.8,53.0,30.01,NE,45,0.0,0.0,86,0.00,,,0.00,weatherlink.com 1.10,2013-09-21 06:42:00,
2013-09-21 00:57:00,56.8,52.0,30.01,NE,45,0.0,0.0,85,0.00,,,0.00,weatherlink.com 1.10,2013-09-21 06:57:00,
2013-09-21 01:28:00,55.9,52.0,30.01,NE,45,0.0,0.0,87,0.00,,,0.00,weatherlink.com 1.10,2013-09-21 07:28:00,
2013-09-21 01:43:00,55.5,52.0,30.01,NE,45,0.0,0.0,88,0.00,,,0.00,weatherlink.com 1.10,2013-09-21 07:43:00,
2013-09-21 01:58:00,55.3,52.0,30.01,NE,45,0.0,0.0,88,0.00,,,0.00,weatherlink.com 1.10,2013-09-21 07:58:00,
2013-09-21 02:28:00,54.7,52.0,30.01,NE,45,0.0,0.0,89,0.00,,,0.00,weatherlink.com 1.10,2013-09-21 08:28:00,
2013-09-21 02:43:00,54.5,51.0,30.01,NE,45,0.0,0.0,89,0.00,,,0.00,weatherlink.com 1.10,2013-09-21 08:43:00,
2013-09-21 02:58:00,54.4,51.0,30.01,NE,45,0.0,0.0,89,0.00,,,0.00,weatherlink.com 1.10,2013-09-21 08:58:00,
2013-09-21 03:13:00,54.3,51.0,30.01,NE,45,0.0,0.0,89,0.00,,,0.00,weatherlink.com 1.10,2013-09-21 09:13:00,
2013-09-21 03:28:00,54.1,51.0,30.01,NE,45,0.0,0.0,89,0.00,,,0.00,weatherlink.com 1.10,2013-09-21 09:28:00,
2013-09-21 03:43:00,53.8,51.0,30.01,NE,45,0.0,0.0,89,0.00,,,0.00,weatherlink.com 1.10,2013-09-21 09:43:00,
2013-09-21 03:58:00,53.7,51.0,30.01,NE,45,0.0,0.0,89,0.00,,,0.00,weatherlink.com 1.10,2013-09-21 09:58:00,
2013-09-21 04:13:00,53.5,50.0,30.01,NE,45,0.0,0.0,89,0.00,,,0.00,weatherlink.com 1.10,2013-09-21 10:13:00,
2013-09-21 04:28:00,53.3,50.0,30.01,NE,45,0.0,0.0,89,0.00,,,0.00,weatherlink.com 1.10,2013-09-21 10:28:00,
2013-09-21 04:43:00,53.1,50.0,30.01,NE,45,0.0,0.0,89,0.00,,,0.00,weatherlink.com 1.10,2013-09-21 10:43:00,
2013-09-21 04:58:00,52.9,50.0,30.02,NE,45,0.0,0.0,89,0.00,,,0.00,weatherlink.com 1.10,2013-09-21 10:58:00,
2013-09-21 05:13:00,53.0,50.0,30.02,NE,45,0.0,0.0,89,0.00,,,0.00,weatherlink.com 1.10,2013-09-21 11:13:00,
2013-09-21 05:28:00,53.1,50.0,30.02,NE,45,0.0,0.0,89,0.00,,,0.00,weatherlink.com 1.10,2013-09-21 11:28:00,
2013-09-21 05:43:00,53.0,50.0,30.02,NE,45,0.0,0.0,89,0.00,,,0.00,weatherlink.com 1.10,2013-09-21 11:43:00,
2013-09-21 05:58:00,52.9,50.0,30.03,NE,45,0.0,0.0,89,0.00,,,0.00,weatherlink.com 1.10,2013-09-21 11:58:00,
2013-09-21 06:13:00,52.6,50.0,30.03,NE,45,0.0,0.0,89,0.00,,,0.00,weatherlink.com 1.10,2013-09-21 12:13:00,
2013-09-21 06:28:00,52.3,49.0,30.03,NE,45,0.0,0.0,89,0.00,,,0.00,weatherlink.com 1.10,2013-09-21 12:28:00,
2013-09-21 06:43:00,52.2,49.0,30.03,NE,45,0.0,0.0,90,0.00,,,0.00,weatherlink.com 1.10,2013-09-21 12:43:00,
2013-09-21 06:58:00,52.3,50.0,30.04,NE,45,0.0,0.0,90,0.00,,,0.00,weatherlink.com 1.10,2013-09-21 12:58:00,
2013-09-21 07:13:00,53.0,50.0,30.04,NE,45,0.0,0.0,89,0.00,,,0.00,weatherlink.com 1.10,2013-09-21 13:13:00,
2013-09-21 07:28:00,54.2,51.0,30.04,NE,45,0.0,0.0,89,0.00,,,0.00,weatherlink.com 1.10,2013-09-21 13:28:00,
2013-09-21 07:43:00,55.4,52.0,30.04,NE,45,0.0,1.0,88,0.00,,,0.00,weatherlink.com 1.10,2013-09-21 13:43:00,
2013-09-21 07:58:00,56.6,52.0,30.04,NE,45,3.0,4.0,85,0.00,,,0.00,weatherlink.com 1.10,2013-09-21 13:58:00,
2013-09-21 08:13:00,57.9,54.0,30.05,NE,45,1.0,3.0,85,0.00,,,0.00,weatherlink.com 1.10,2013-09-21 14:13:00,
2013-09-21 08:28:00,59.4,54.0,30.05,NE,45,0.0,3.0,81,0.00,,,0.00,weatherlink.com 1.10,2013-09-21 14:28:00,
2013-09-21 08:43:00,61.2,54.0,30.05,NE,45,0.0,2.0,77,0.00,,,0.00,weatherlink.com 1.10,2013-09-21 14:43:00,
2013-09-21 08:58:00,63.1,55.0,30.05,NE,45,1.0,3.0,75,0.00,,,0.00,weatherlink.com 1.10,2013-09-21 14:58:00,
2013-09-21 09:13:00,64.4,56.0,30.05,NE,45,0.0,3.0,73,0.00,,,0.00,weatherlink.com 1.10,2013-09-21 15:13:00,
2013-09-21 09:28:00,66.6,56.0,30.05,NE,45,2.0,2.0,68,0.00,,,0.00,weatherlink.com 1.10,2013-09-21 15:28:00,
2013-09-21 09:43:00,68.3,53.0,30.05,NE,45,0.0,3.0,58,0.00,,,0.00,weatherlink.com 1.10,2013-09-21 15:43:00,
2013-09-21 09:59:00,70.3,53.0,30.05,NE,45,2.0,3.0,54,0.00,,,0.00,weatherlink.com 1.10,2013-09-21 15:59:00,
2013-09-21 10:14:00,72.3,52.0,30.05,NE,45,0.0,2.0,49,0.00,,,0.00,weatherlink.com 1.10,2013-09-21 16:14:00,
2013-09-21 10:29:00,73.5,52.0,30.05,NE,45,0.0,3.0,48,0.00,,,0.00,weatherlink.com 1.10,2013-09-21 16:29:00,
2013-09-21 10:44:00,73.8,50.0,30.04,NE,45,0.0,5.0,44,0.00,,,0.00,weatherlink.com 1.10,2013-09-21 16:44:00,
2013-09-21 10:59:00,74.2,50.0,30.04,NE,47,4.0,6.0,42,0.00,,,0.00,weatherlink.com 1.10,2013-09-21 16:59:00,
2013-09-21 11:14:00,74.6,49.0,30.03,NE,50,0.0,8.0,40,0.00,,,0.00,weatherlink.com 1.10,2013-09-21 17:14:00,
2013-09-21 11:29:00,75.2,48.0,30.03,NE,54,0.0,6.0,39,0.00,,,0.00,weatherlink.com 1.10,2013-09-21 17:29:00,
2013-09-21 11:44:00,75.5,47.0,30.02,NE,56,4.0,7.0,36,0.00,,,0.00,weatherlink.com 1.10,2013-09-21 17:44:00,
2013-09-21 11:59:00,75.7,48.0,30.02,ENE,66,0.0,8.0,38,0.00,,,0.00,weatherlink.com 1.10,2013-09-21 17:59:00,
2013-09-21 12:14:00,76.3,49.0,30.01,East,79,0.0,7.0,38,0.00,,,0.00,weatherlink.com 1.10,2013-09-21 18:14:00,
2013-09-21 12:29:00,76.8,49.0,30.00,SE,143,2.0,8.0,37,0.00,,,0.00,weatherlink.com 1.10,2013-09-21 18:29:00,
2013-09-21 12:44:00,76.7,48.0,30.00,SSE,168,4.0,7.0,37,0.00,,,0.00,weatherlink.com 1.10,2013-09-21 18:44:00,
2013-09-21 12:59:00,77.7,48.0,29.99,South,172,1.0,6.0,35,0.00,,,0.00,weatherlink.com 1.10,2013-09-21 18:59:00,
2013-09-21 13:14:00,78.3,48.0,29.98,South,175,0.0,4.0,34,0.00,,,0.00,weatherlink.com 1.10,2013-09-21 19:14:00,
2013-09-21 13:29:00,78.3,48.0,29.97,South,175,0.0,3.0,34,0.00,,,0.00,weatherlink.com 1.10,2013-09-21 19:29:00,
2013-09-21 13:44:00,78.9,47.0,29.96,South,191,4.0,9.0,33,0.00,,,0.00,weatherlink.com 1.10,2013-09-21 19:44:00,
2013-09-21 14:00:00,79.2,47.0,29.95,South,185,2.0,6.0,32,0.00,,,0.00,weatherlink.com 1.10,2013-09-21 20:00:00,
2013-09-21 14:14:00,79.1,48.0,29.95,South,169,2.0,6.0,33,0.00,,,0.00,weatherlink.com 1.10,2013-09-21 20:14:00,
2013-09-21 14:29:00,79.2,47.0,29.94,South,172,4.0,5.0,32,0.00,,,0.00,weatherlink.com 1.10,2013-09-21 20:29:00,
2013-09-21 14:44:00,79.2,47.0,29.94,SSE,166,2.0,7.0,32,0.00,,,0.00,weatherlink.com 1.10,2013-09-21 20:44:00,
2013-09-21 14:59:00,79.6,46.0,29.93,SSE,165,4.0,5.0,31,0.00,,,0.00,weatherlink.com 1.10,2013-09-21 20:59:00,
2013-09-21 15:14:00,79.8,47.0,29.92,SSE,165,5.0,6.0,32,0.00,,,0.00,weatherlink.com 1.10,2013-09-21 21:14:00,
2013-09-21 15:29:00,79.9,47.0,29.92,SSE,159,0.0,8.0,31,0.00,,,0.00,weatherlink.com 1.10,2013-09-21 21:29:00,
2013-09-21 15:44:00,80.1,46.0,29.91,SSE,159,0.0,5.0,30,0.00,,,0.00,weatherlink.com 1.10,2013-09-21 21:44:00,
2013-09-21 15:59:00,80.3,47.0,29.91,SSE,161,0.0,7.0,31,0.00,,,0.00,weatherlink.com 1.10,2013-09-21 21:59:00,
2013-09-21 16:15:00,80.5,47.0,29.91,South,169,1.0,7.0,31,0.00,,,0.00,weatherlink.com 1.10,2013-09-21 22:15:00,
2013-09-21 16:30:00,80.3,47.0,29.90,SSE,168,0.0,6.0,31,0.00,,,0.00,weatherlink.com 1.10,2013-09-21 22:30:00,
2013-09-21 16:45:00,80.1,48.0,29.90,South,170,0.0,7.0,33,0.00,,,0.00,weatherlink.com 1.10,2013-09-21 22:45:00,
2013-09-21 17:00:00,80.2,50.0,29.89,South,172,7.0,7.0,35,0.00,,,0.00,weatherlink.com 1.10,2013-09-21 23:00:00,
2013-09-21 17:15:00,79.8,50.0,29.90,South,172,6.0,6.0,35,0.00,,,0.00,weatherlink.com 1.10,2013-09-21 23:15:00,
2013-09-21 17:30:00,79.8,50.0,29.89,South,172,3.0,5.0,35,0.00,,,0.00,weatherlink.com 1.10,2013-09-21 23:30:00,
2013-09-21 17:45:00,79.4,51.0,29.89,South,172,0.0,4.0,37,0.00,,,0.00,weatherlink.com 1.10,2013-09-21 23:45:00,
2013-09-21 18:00:00,79.0,51.0,29.89,South,172,0.0,2.0,38,0.00,,,0.00,weatherlink.com 1.10,2013-09-22 00:00:00,
2013-09-21 18:15:00,78.2,54.0,29.89,South,172,0.0,1.0,43,0.00,,,0.00,weatherlink.com 1.10,2013-09-22 00:15:00,
2013-09-21 18:30:00,76.9,54.0,29.88,South,172,0.0,0.0,46,0.00,,,0.00,weatherlink.com 1.10,2013-09-22 00:30:00,
2013-09-21 18:45:00,75.4,54.0,29.88,South,173,0.0,0.0,47,0.00,,,0.00,weatherlink.com 1.10,2013-09-22 00:45:00,
2013-09-21 19:00:00,74.3,53.0,29.88,South,172,0.0,0.0,47,0.00,,,0.00,weatherlink.com 1.10,2013-09-22 01:00:00,
2013-09-21 19:15:00,73.4,52.0,29.88,South,172,0.0,0.0,48,0.00,,,0.00,weatherlink.com 1.10,2013-09-22 01:15:00,
2013-09-21 19:30:00,72.6,53.0,29.88,South,172,0.0,0.0,50,0.00,,,0.00,weatherlink.com 1.10,2013-09-22 01:30:00,
2013-09-21 19:45:00,71.7,54.0,29.88,South,172,0.0,0.0,53,0.00,,,0.00,weatherlink.com 1.10,2013-09-22 01:45:00,
2013-09-21 20:00:00,70.9,53.0,29.89,South,172,0.0,0.0,54,0.00,,,0.00,weatherlink.com 1.10,2013-09-22 02:00:00,
2013-09-21 20:15:00,70.3,53.0,29.89,South,172,0.0,0.0,55,0.00,,,0.00,weatherlink.com 1.10,2013-09-22 02:15:00,
2013-09-21 20:30:00,69.6,53.0,29.89,South,172,0.0,0.0,56,0.00,,,0.00,weatherlink.com 1.10,2013-09-22 02:30:00,
2013-09-21 20:45:00,68.9,53.0,29.89,South,172,0.0,0.0,58,0.00,,,0.00,weatherlink.com 1.10,2013-09-22 02:45:00,
2013-09-21 21:00:00,68.3,54.0,29.89,South,172,0.0,0.0,60,0.00,,,0.00,weatherlink.com 1.10,2013-09-22 03:00:00,
2013-09-21 21:15:00,67.8,53.0,29.89,South,172,0.0,0.0,60,0.00,,,0.00,weatherlink.com 1.10,2013-09-22 03:15:00,
2013-09-21 21:30:00,67.5,53.0,29.89,South,172,0.0,0.0,61,0.00,,,0.00,weatherlink.com 1.10,2013-09-22 03:30:00,
2013-09-21 21:45:00,67.2,54.0,29.89,South,172,0.0,0.0,62,0.00,,,0.00,weatherlink.com 1.10,2013-09-22 03:45:00,
2013-09-21 22:15:00,66.3,53.0,29.89,South,172,0.0,0.0,63,0.00,,,0.00,weatherlink.com 1.10,2013-09-22 04:15:00,
2013-09-21 22:30:00,65.8,54.0,29.89,South,173,0.0,0.0,65,0.00,,,0.00,weatherlink.com 1.10,2013-09-22 04:30:00,
2013-09-21 22:45:00,65.5,54.0,29.89,South,173,0.0,0.0,66,0.00,,,0.00,weatherlink.com 1.10,2013-09-22 04:45:00,
2013-09-21 23:00:00,65.3,53.0,29.89,South,172,0.0,0.0,65,0.00,,,0.00,weatherlink.com 1.10,2013-09-22 05:00:00,
2013-09-21 23:15:00,65.4,53.0,29.88,South,172,0.0,0.0,65,0.00,,,0.00,weatherlink.com 1.10,2013-09-22 05:15:00,
2013-09-21 23:30:00,65.2,53.0,29.88,South,172,0.0,0.0,66,0.00,,,0.00,weatherlink.com 1.10,2013-09-22 05:30:00,
2013-09-21 23:45:00,64.9,53.0,29.88,South,173,0.0,0.0,66,0.00,,,0.00,weatherlink.com 1.10,2013-09-22 05:45:00,